• In Slovakia
  • List of Countries
  • For 7 days
  • Water Temperature
  • Satellite Maps
  • Weather Map
  • Weather Widgets
  • user-avatar
    Login

    Hourly Weather Hobart

    Today, 17 November, Friday

    Time Temperature Precipitation Wind Pressure Humidity
    00:00 +13°C° 0 mm 2 mps 753 mmHg 98%
    01:00 +13°C° 0 mm 2 mps 752 mmHg 99%
    02:00 +13°C° 0.1 mm 2 mps 752 mmHg 99%
    03:00 +13°C° 0.1 mm 2 mps 752 mmHg 99%
    04:00 +12°C° 0 mm 3 mps 752 mmHg 99%
    05:00 +13°C° 0.1 mm 2 mps 752 mmHg 98%
    06:00 +14°C° 0.1 mm 2 mps 752 mmHg 97%
    07:00 +15°C° 0.1 mm 2 mps 753 mmHg 96%
    08:00 +17°C° 0 mm 2 mps 752 mmHg 87%
    09:00 +18°C° 0 mm 3 mps 752 mmHg 79%
    10:00 +19°C° 0 mm 2 mps 752 mmHg 77%
    11:00 +21°C° 0 mm 3 mps 752 mmHg 66%
    12:00 +23°C° 0 mm 4 mps 752 mmHg 55%
    13:00 +26°C° 0 mm 4 mps 752 mmHg 45%
    14:00 +26°C° 0 mm 5 mps 751 mmHg 44%
    15:00 +26°C° 0 mm 5 mps 751 mmHg 44%
    16:00 +26°C° 0 mm 5 mps 751 mmHg 47%
    17:00 +23°C° 0 mm 5 mps 751 mmHg 54%
    18:00 +21°C° 0 mm 5 mps 751 mmHg 62%
    19:00 +19°C° 0 mm 4 mps 752 mmHg 69%
    20:00 +18°C° 0 mm 4 mps 752 mmHg 77%
    21:00 +15°C° 0 mm 4 mps 752 mmHg 85%
    22:00 +14°C° 0 mm 4 mps 752 mmHg 94%
    23:00 +13°C° 0 mm 3 mps 752 mmHg 95%

    Tomorrow, 18 November, Saturday

    Time Temperature Precipitation Wind Pressure Humidity
    00:00 +13°C° 0 mm 3 mps 752 mmHg 96%
    01:00 +12°C° 0 mm 3 mps 752 mmHg 97%
    02:00 +12°C° 0 mm 3 mps 752 mmHg 98%
    03:00 +12°C° 0 mm 3 mps 752 mmHg 98%
    04:00 +12°C° 0 mm 3 mps 752 mmHg 98%
    05:00 +14°C° 0 mm 3 mps 752 mmHg 91%
    06:00 +16°C° 0 mm 3 mps 753 mmHg 84%
    07:00 +18°C° 0 mm 4 mps 753 mmHg 78%
    08:00 +20°C° 0 mm 4 mps 753 mmHg 70%
    09:00 +21°C° 0 mm 4 mps 753 mmHg 62%
    10:00 +23°C° 0 mm 4 mps 753 mmHg 54%
    11:00 +25°C° 0 mm 4 mps 753 mmHg 51%
    12:00 +26°C° 0 mm 4 mps 753 mmHg 48%
    13:00 +27°C° 0 mm 5 mps 753 mmHg 45%
    14:00 +27°C° 0 mm 5 mps 752 mmHg 47%
    15:00 +27°C° 0 mm 5 mps 752 mmHg 49%
    16:00 +27°C° 0 mm 5 mps 752 mmHg 51%
    17:00 +25°C° 0.1 mm 5 mps 752 mmHg 59%
    18:00 +22°C° 0.1 mm 4 mps 753 mmHg 67%
    19:00 +20°C° 0.1 mm 4 mps 753 mmHg 75%
    20:00 +19°C° 0 mm 4 mps 753 mmHg 81%
    21:00 +17°C° 0 mm 4 mps 753 mmHg 87%
    22:00 +16°C° 0 mm 3 mps 753 mmHg 93%
    23:00 +16°C° 0 mm 3 mps 753 mmHg 94%

    Day after tomorrow, 19 November, Sunday

    Time Temperature Precipitation Wind Pressure Humidity
    00:00 +14°C° 0 mm 3 mps 753 mmHg 95%
    01:00 +14°C° 0 mm 3 mps 753 mmHg 97%
    02:00 +13°C° 0 mm 3 mps 754 mmHg 97%
    03:00 +14°C° 0 mm 2 mps 754 mmHg 97%
    04:00 +14°C° 0 mm 2 mps 754 mmHg 96%
    05:00 +16°C° 0 mm 2 mps 754 mmHg 88%
    06:00 +18°C° 0 mm 2 mps 754 mmHg 80%
    07:00 +20°C° 0 mm 2 mps 755 mmHg 72%
    08:00 +23°C° 0 mm 2 mps 755 mmHg 62%
    09:00 +25°C° 0 mm 2 mps 755 mmHg 53%
    10:00 +27°C° 0 mm 2 mps 755 mmHg 43%
    11:00 +28°C° 0 mm 2 mps 755 mmHg 42%
    12:00 +28°C° 0 mm 3 mps 755 mmHg 41%
    13:00 +29°C° 0 mm 3 mps 754 mmHg 40%
    14:00 +29°C° 0 mm 3 mps 754 mmHg 40%
    15:00 +28°C° 0 mm 3 mps 754 mmHg 41%
    16:00 +28°C° 0 mm 3 mps 754 mmHg 41%
    17:00 +26°C° 0 mm 3 mps 754 mmHg 50%
    18:00 +24°C° 0 mm 2 mps 754 mmHg 58%
    19:00 +21°C° 0 mm 2 mps 754 mmHg 66%
    20:00 +19°C° 0 mm 2 mps 755 mmHg 72%
    21:00 +18°C° 0 mm 2 mps 755 mmHg 78%
    22:00 +16°C° 0 mm 1 mps 755 mmHg 84%
    23:00 +16°C° 0 mm 1 mps 755 mmHg 85%

    20 November, Monday

    Time Temperature Precipitation Wind Pressure Humidity
    00:00 +16°C° 0 mm 1 mps 755 mmHg 85%
    01:00 +15°C° 0 mm 2 mps 755 mmHg 86%
    02:00 +15°C° 0 mm 2 mps 755 mmHg 87%
    03:00 +15°C° 0 mm 2 mps 755 mmHg 88%
    04:00 +14°C° 0 mm 2 mps 755 mmHg 89%
    05:00 +16°C° 0 mm 2 mps 756 mmHg 80%
    06:00 +18°C° 0 mm 2 mps 756 mmHg 71%
    07:00 +22°C° 0 mm 1 mps 756 mmHg 62%
    08:00 +24°C° 0 mm 2 mps 756 mmHg 53%
    09:00 +27°C° 0 mm 2 mps 756 mmHg 43%
    10:00 +29°C° 0 mm 2 mps 756 mmHg 34%
    11:00 +30°C° 0 mm 2 mps 756 mmHg 31%
    12:00 +31°C° 0 mm 3 mps 755 mmHg 28%
    13:00 +31°C° 0 mm 3 mps 755 mmHg 25%
    14:00 +31°C° 0 mm 3 mps 755 mmHg 28%
    15:00 +30°C° 0 mm 4 mps 754 mmHg 30%
    16:00 +29°C° 0 mm 4 mps 754 mmHg 33%
    17:00 +26°C° 0 mm 3 mps 754 mmHg 43%
    18:00 +24°C° 0 mm 3 mps 754 mmHg 52%
    19:00 +21°C° 0 mm 2 mps 755 mmHg 62%
    20:00 +19°C° 0 mm 2 mps 755 mmHg 65%
    21:00 +18°C° 0 mm 2 mps 755 mmHg 68%
    22:00 +17°C° 0 mm 2 mps 755 mmHg 71%
    23:00 +17°C° 0 mm 2 mps 755 mmHg 73%

    21 November, Tuesday

    Time Temperature Precipitation Wind Pressure Humidity
    00:00 +17°C° 0 mm 2 mps 755 mmHg 74%
    01:00 +17°C° 0 mm 2 mps 754 mmHg 76%
    02:00 +16°C° 0 mm 2 mps 754 mmHg 77%
    03:00 +16°C° 0 mm 2 mps 754 mmHg 78%
    04:00 +15°C° 0 mm 2 mps 754 mmHg 79%
    05:00 +17°C° 0 mm 2 mps 754 mmHg 72%
    06:00 +19°C° 0 mm 2 mps 754 mmHg 65%
    07:00 +21°C° 0 mm 2 mps 754 mmHg 58%
    08:00 +24°C° 0 mm 2 mps 754 mmHg 49%
    09:00 +27°C° 0 mm 2 mps 754 mmHg 41%
    10:00 +30°C° 0 mm 2 mps 754 mmHg 33%
    11:00 +30°C° 0 mm 3 mps 754 mmHg 30%
    12:00 +31°C° 0 mm 3 mps 753 mmHg 28%
    13:00 +31°C° 0 mm 3 mps 753 mmHg 26%
    14:00 +31°C° 0 mm 3 mps 753 mmHg 27%
    15:00 +30°C° 0 mm 4 mps 752 mmHg 28%
    16:00 +30°C° 0 mm 4 mps 752 mmHg 30%
    17:00 +28°C° 0 mm 3 mps 752 mmHg 39%
    18:00 +25°C° 0 mm 3 mps 752 mmHg 49%
    19:00 +22°C° 0 mm 3 mps 752 mmHg 59%
    20:00 +20°C° 0 mm 3 mps 752 mmHg 64%
    21:00 +19°C° 0 mm 2 mps 752 mmHg 70%
    22:00 +17°C° 0 mm 2 mps 752 mmHg 76%
    23:00 +17°C° 0 mm 2 mps 752 mmHg 78%

    22 November, Wednesday

    Time Temperature Precipitation Wind Pressure Humidity
    00:00 +16°C° 0 mm 2 mps 751 mmHg 79%
    01:00 +16°C° 0 mm 2 mps 751 mmHg 81%
    02:00 +14°C° 0 mm 3 mps 751 mmHg 80%
    03:00 +14°C° 0 mm 3 mps 751 mmHg 79%
    04:00 +14°C° 0 mm 3 mps 750 mmHg 78%
    05:00 +17°C° 0 mm 3 mps 751 mmHg 70%
    06:00 +19°C° 0 mm 3 mps 751 mmHg 61%
    07:00 +21°C° 0 mm 3 mps 751 mmHg 52%
    08:00 +25°C° 0 mm 3 mps 751 mmHg 44%
    09:00 +27°C° 0 mm 3 mps 751 mmHg 36%
    10:00 +30°C° 0 mm 3 mps 750 mmHg 27%
    11:00 +31°C° 0 mm 3 mps 750 mmHg 25%
    12:00 +33°C° 0 mm 3 mps 750 mmHg 23%
    13:00 +34°C° 0 mm 3 mps 749 mmHg 21%
    14:00 +33°C° 0 mm 3 mps 749 mmHg 26%
    15:00 +32°C° 0 mm 4 mps 749 mmHg 30%
    16:00 +29°C° 0 mm 4 mps 749 mmHg 35%
    17:00 +27°C° 0 mm 3 mps 749 mmHg 43%
    18:00 +25°C° 0 mm 3 mps 749 mmHg 51%
    19:00 +23°C° 0 mm 2 mps 749 mmHg 59%
    20:00 +20°C° 0 mm 2 mps 750 mmHg 63%
    21:00 +19°C° 0 mm 2 mps 750 mmHg 67%
    22:00 +18°C° 0 mm 2 mps 750 mmHg 70%
    23:00 +18°C° 0 mm 2 mps 750 mmHg 70%
    Show more